Вернуться в каталог

FENGYUN 1C DEB

АктивенSSO
NORAD 38519·DEBRIS·🇨🇳 China

Запущен May 10, 1999 с Taiyuan Satellite Launch Center

Loading…

Ближайшие Пролёты (ближайшие 24 часа)

TLE

УстаревающийSource: Space-Track

Эпоха: Sep 8, 2026, 04:51 UTC

1 38519U 99025ETE 26251.20258232  .00001602  00000-0  12167-2 0  9999
2 38519  99.5524 238.0440 0172752  44.8755 316.6221 13.88547336884762

Отслеживайте FENGYUN 1C DEB в реальном времени с AllMySat

Download on the App Store